When you browse on this site, cookies collect data to enhance your experience and personalize the content and advertising you see.
Visit our Privacy Policy to learn more. By continuing to use the site, you agree to this use of cookies and data.
  • en France
  • Liste des pays
  • À 7 jours
  • Température de l'eau
  • Carte météo
  • Widgets météo
  • user-avatar
    Se connecter

    Météo par heure à Phnom Penh

    Ce jour, 4 Juin, Jeudi

    Heure Température Précipitation Vent Pression Humidité
    00:00 +30°C° 0 mm 2 m/s 755 mmHg 81%
    01:00 +29°C° 0 mm 2 m/s 755 mmHg 81%
    02:00 +29°C° 0 mm 2 m/s 755 mmHg 82%
    03:00 +29°C° 0 mm 2 m/s 754 mmHg 83%
    04:00 +29°C° 0 mm 2 m/s 754 mmHg 84%
    05:00 +29°C° 0 mm 2 m/s 754 mmHg 82%
    06:00 +30°C° 0 mm 2 m/s 755 mmHg 80%
    07:00 +30°C° 0 mm 2 m/s 756 mmHg 77%
    08:00 +32°C° 0 mm 2 m/s 756 mmHg 70%
    09:00 +34°C° 0 mm 3 m/s 756 mmHg 62%
    10:00 +36°C° 0 mm 3 m/s 756 mmHg 55%
    11:00 +36°C° 0 mm 3 m/s 755 mmHg 51%
    12:00 +37°C° 0 mm 3 m/s 755 mmHg 48%
    13:00 +38°C° 0 mm 2 m/s 754 mmHg 45%
    14:00 +38°C° 0 mm 3 m/s 754 mmHg 48%
    15:00 +37°C° 0 mm 3 m/s 753 mmHg 50%
    16:00 +37°C° 0 mm 3 m/s 753 mmHg 53%
    17:00 +35°C° 0.2 mm 3 m/s 753 mmHg 60%
    18:00 +33°C° 0.2 mm 3 m/s 754 mmHg 66%
    19:00 +31°C° 0.2 mm 3 m/s 754 mmHg 73%
    20:00 +31°C° 0.1 mm 3 m/s 754 mmHg 75%
    21:00 +30°C° 0.1 mm 3 m/s 755 mmHg 77%
    22:00 +30°C° 0.1 mm 3 m/s 755 mmHg 79%
    23:00 +30°C° 0.1 mm 3 m/s 755 mmHg 79%

    Demain, 5 Juin, Vendredi

    Heure Température Précipitation Vent Pression Humidité
    00:00 +29°C° 0.1 mm 3 m/s 755 mmHg 80%
    01:00 +29°C° 0.1 mm 3 m/s 755 mmHg 81%
    02:00 +29°C° 0 mm 2 m/s 754 mmHg 81%
    03:00 +29°C° 0 mm 2 m/s 754 mmHg 82%
    04:00 +28°C° 0 mm 2 m/s 754 mmHg 82%
    05:00 +29°C° 0 mm 2 m/s 754 mmHg 80%
    06:00 +29°C° 0 mm 2 m/s 755 mmHg 78%
    07:00 +30°C° 0 mm 2 m/s 755 mmHg 76%
    08:00 +31°C° 0 mm 2 m/s 755 mmHg 68%
    09:00 +34°C° 0 mm 3 m/s 756 mmHg 60%
    10:00 +36°C° 0 mm 3 m/s 756 mmHg 52%
    11:00 +37°C° 0 mm 3 m/s 755 mmHg 50%
    12:00 +38°C° 0 mm 3 m/s 755 mmHg 47%
    13:00 +38°C° 0 mm 3 m/s 754 mmHg 45%
    14:00 +38°C° 0 mm 3 m/s 754 mmHg 45%
    15:00 +38°C° 0 mm 4 m/s 753 mmHg 46%
    16:00 +38°C° 0 mm 4 m/s 753 mmHg 47%
    17:00 +36°C° 0 mm 3 m/s 753 mmHg 53%
    18:00 +35°C° 0 mm 3 m/s 753 mmHg 59%
    19:00 +33°C° 0 mm 3 m/s 753 mmHg 65%
    20:00 +33°C° 0 mm 3 m/s 754 mmHg 67%
    21:00 +31°C° 0 mm 3 m/s 754 mmHg 69%
    22:00 +32°C° 0 mm 4 m/s 755 mmHg 72%
    23:00 +30°C° 0 mm 4 m/s 754 mmHg 73%

    Après-demain, 6 Juin, Samedi

    Heure Température Précipitation Vent Pression Humidité
    00:00 +30°C° 0 mm 3 m/s 754 mmHg 74%
    01:00 +30°C° 0 mm 3 m/s 754 mmHg 75%
    02:00 +29°C° 0 mm 3 m/s 754 mmHg 77%
    03:00 +29°C° 0 mm 2 m/s 753 mmHg 78%
    04:00 +29°C° 0 mm 2 m/s 753 mmHg 79%
    05:00 +29°C° 0 mm 2 m/s 754 mmHg 78%
    06:00 +30°C° 0 mm 2 m/s 754 mmHg 77%
    07:00 +30°C° 0 mm 3 m/s 754 mmHg 76%
    08:00 +33°C° 0 mm 3 m/s 755 mmHg 69%
    09:00 +34°C° 0 mm 4 m/s 755 mmHg 62%
    10:00 +36°C° 0 mm 4 m/s 755 mmHg 54%
    11:00 +37°C° 0 mm 4 m/s 754 mmHg 52%
    12:00 +37°C° 0 mm 4 m/s 754 mmHg 50%
    13:00 +38°C° 0 mm 4 m/s 753 mmHg 48%
    14:00 +38°C° 0.5 mm 4 m/s 753 mmHg 51%
    15:00 +37°C° 0.5 mm 4 m/s 752 mmHg 53%
    16:00 +36°C° 0.5 mm 5 m/s 752 mmHg 55%
    17:00 +35°C° 0.7 mm 4 m/s 752 mmHg 60%
    18:00 +34°C° 0.7 mm 4 m/s 753 mmHg 65%
    19:00 +33°C° 0.7 mm 4 m/s 754 mmHg 69%
    20:00 +32°C° 0 mm 4 m/s 754 mmHg 71%
    21:00 +32°C° 0 mm 4 m/s 754 mmHg 72%
    22:00 +30°C° 0 mm 4 m/s 755 mmHg 74%
    23:00 +30°C° 0 mm 3 m/s 755 mmHg 76%

    7 Juin, Dimanche

    Heure Température Précipitation Vent Pression Humidité
    00:00 +29°C° 0 mm 3 m/s 754 mmHg 78%
    01:00 +29°C° 0 mm 3 m/s 754 mmHg 79%
    02:00 +29°C° 0 mm 3 m/s 754 mmHg 80%
    03:00 +29°C° 0 mm 2 m/s 754 mmHg 81%
    04:00 +29°C° 0 mm 2 m/s 753 mmHg 81%
    05:00 +29°C° 0 mm 3 m/s 754 mmHg 80%
    06:00 +30°C° 0 mm 3 m/s 754 mmHg 78%
    07:00 +30°C° 0 mm 3 m/s 754 mmHg 76%
    08:00 +33°C° 0 mm 4 m/s 754 mmHg 69%
    09:00 +34°C° 0 mm 4 m/s 755 mmHg 63%
    10:00 +36°C° 0 mm 4 m/s 755 mmHg 56%
    11:00 +36°C° 0 mm 4 m/s 754 mmHg 54%
    12:00 +37°C° 0 mm 4 m/s 753 mmHg 52%
    13:00 +37°C° 0 mm 3 m/s 753 mmHg 50%
    14:00 +37°C° 0.4 mm 4 m/s 752 mmHg 52%
    15:00 +36°C° 0.4 mm 4 m/s 752 mmHg 54%
    16:00 +36°C° 0.4 mm 5 m/s 752 mmHg 56%
    17:00 +35°C° 0.6 mm 4 m/s 752 mmHg 61%
    18:00 +33°C° 0.6 mm 4 m/s 753 mmHg 66%
    19:00 +32°C° 0.6 mm 4 m/s 753 mmHg 71%
    20:00 +32°C° 0 mm 4 m/s 754 mmHg 73%
    21:00 +30°C° 0 mm 3 m/s 754 mmHg 74%
    22:00 +29°C° 0 mm 3 m/s 755 mmHg 76%
    23:00 +29°C° 0 mm 3 m/s 754 mmHg 77%

    8 Juin, Lundi

    Heure Température Précipitation Vent Pression Humidité
    00:00 +29°C° 0 mm 3 m/s 754 mmHg 79%
    01:00 +29°C° 0 mm 3 m/s 753 mmHg 80%
    02:00 +28°C° 0 mm 3 m/s 753 mmHg 81%
    03:00 +28°C° 0 mm 3 m/s 753 mmHg 82%
    04:00 +28°C° 0 mm 3 m/s 753 mmHg 83%
    05:00 +29°C° 0 mm 3 m/s 753 mmHg 81%
    06:00 +29°C° 0 mm 3 m/s 754 mmHg 80%
    07:00 +29°C° 0 mm 4 m/s 754 mmHg 78%
    08:00 +32°C° 0 mm 4 m/s 754 mmHg 71%
    09:00 +34°C° 0 mm 4 m/s 755 mmHg 65%
    10:00 +35°C° 0 mm 5 m/s 755 mmHg 58%
    11:00 +36°C° 0.1 mm 5 m/s 754 mmHg 56%
    12:00 +37°C° 0.1 mm 5 m/s 754 mmHg 53%
    13:00 +39°C° 0.1 mm 5 m/s 753 mmHg 50%
    14:00 +37°C° 1.7 mm 5 m/s 753 mmHg 53%
    15:00 +36°C° 1.7 mm 4 m/s 753 mmHg 56%
    16:00 +35°C° 1.7 mm 4 m/s 752 mmHg 59%
    17:00 +34°C° 0.5 mm 4 m/s 753 mmHg 63%
    18:00 +33°C° 0.5 mm 3 m/s 753 mmHg 68%
    19:00 +31°C° 0.5 mm 2 m/s 753 mmHg 72%
    20:00 +30°C° 0 mm 2 m/s 754 mmHg 73%
    21:00 +30°C° 0 mm 3 m/s 754 mmHg 75%
    22:00 +29°C° 0 mm 3 m/s 755 mmHg 76%
    23:00 +29°C° 0 mm 3 m/s 754 mmHg 77%

    9 Juin, Mardi

    Heure Température Précipitation Vent Pression Humidité
    00:00 +29°C° 0 mm 3 m/s 754 mmHg 78%
    01:00 +28°C° 0 mm 3 m/s 754 mmHg 78%
    02:00 +28°C° 0.2 mm 2 m/s 754 mmHg 79%
    03:00 +28°C° 0.2 mm 2 m/s 753 mmHg 80%
    04:00 +28°C° 0.2 mm 2 m/s 753 mmHg 81%
    05:00 +28°C° 0.1 mm 1 m/s 754 mmHg 79%
    06:00 +29°C° 0.1 mm 1 m/s 754 mmHg 77%
    07:00 +27°C° 0.1 mm 0 m/s 754 mmHg 75%
    08:00 +29°C° 0 mm 0 m/s 754 mmHg 70%
    09:00 +30°C° 0 mm 0 m/s 755 mmHg 64%
    10:00 +32°C° 0 mm 0 m/s 755 mmHg 58%
    11:00 +35°C° 0 mm 1 m/s 754 mmHg 54%
    12:00 +36°C° 0 mm 1 m/s 754 mmHg 50%
    13:00 +37°C° 0 mm 1 m/s 753 mmHg 45%
    14:00 +37°C° 0 mm 1 m/s 753 mmHg 46%
    15:00 +37°C° 0 mm 1 m/s 753 mmHg 47%
    16:00 +37°C° 0 mm 1 m/s 752 mmHg 47%
    17:00 +36°C° 0.8 mm 2 m/s 752 mmHg 55%
    18:00 +34°C° 0.8 mm 2 m/s 753 mmHg 62%
    19:00 +31°C° 0.8 mm 3 m/s 753 mmHg 70%
    20:00 +31°C° 0.3 mm 3 m/s 753 mmHg 72%
    21:00 +31°C° 0.3 mm 3 m/s 754 mmHg 74%
    22:00 +30°C° 0.3 mm 3 m/s 755 mmHg 77%
    23:00 +30°C° 0 mm 2 m/s 754 mmHg 78%
    Voir plus